FW3102 Weather Reports


Display with metric or nautical units.
time (UTC)temp
F
wind
direction
speed
MPH
gust
MPH
rain 1hr
in
rain 24hr
in
rain mn
in
humidity
%
barometer
mb
20260503024511 65 169 0.0 0.0 0.00 0.00 0.00 31 1006.1
20260503023010 67 169 0.0 0.0 0.00 0.00 0.00 29 1006.1
20260503021510 68 113 0.0 2.0 0.00 0.00 0.00 28 1006.1
20260503020009 69 254 0.0 3.0 0.00 0.00 0.00 28 1006.2
20260503014508 69 39 0.0 4.0 0.00 0.00 0.00 29 1006.3
20260503013018 69 208 0.0 1.0 0.00 0.00 0.00 30 1006.4
20260503011505 70 207 0.0 1.0 0.00 0.00 0.00 30 1006.6
20260503010003 70 207 0.0 3.0 0.00 0.00 0.00 29 1006.7
20260503004502 71 206 0.0 3.0 0.00 0.00 0.00 28 1007.0
20260503003101 72 203 0.0 3.0 0.00 0.00 0.00 27 1007.0
20260503001603 72 198 1.0 5.0 0.00 0.00 0.00 28 1007.2
20260503000107 71 264 0.0 3.0 0.00 0.00 0.00 29 1007.6
20260502234614 72 217 1.0 6.0 0.00 0.00 0.00 27 1007.9
20260502233108 72 184 2.0 4.0 0.00 0.00 0.00 28 1008.1
20260502231603 72 184 0.0 8.0 0.00 0.00 0.00 28 1008.4
20260502230048 71 12 0.0 3.0 0.00 0.00 0.00 29 1008.9
20260502224545 71 229 0.0 5.0 0.00 0.00 0.00 27 1009.1
20260502223047 71 108 0.0 4.0 0.00 0.00 0.00 29 1009.3
20260502221540 71 217 1.0 5.0 0.00 0.00 0.00 29 1009.6
20260502220039 70 96 0.0 6.0 0.00 0.00 0.00 30 1009.9
20260502214532 70 219 0.0 3.0 0.00 0.00 0.00 30 1010.1
20260502213029 70 219 0.0 4.0 0.00 0.00 0.00 30 1010.5
20260502211540 70 217 0.0 8.0 0.00 0.00 0.00 29 1010.9
20260502210026 69 205 0.0 5.0 0.00 0.00 0.00 30 1011.1
20260502204525 69 207 1.0 5.0 0.00 0.00 0.00 30 1011.2
20260502203022 69 218 0.0 3.0 0.00 0.00 0.00 30 1011.5
20260502201520 69 225 1.0 5.0 0.00 0.00 0.00 31 1012.0
20260502200019 68 218 1.0 4.0 0.00 0.00 0.00 29 1012.3
20260502194516 68 335 1.0 5.0 0.00 0.00 0.00 30 1012.5
20260502193015 68 305 1.0 6.0 0.00 0.00 0.00 30 1012.6
20260502191513 68 192 1.0 3.0 0.00 0.00 0.00 31 1012.6
20260502190010 67 205 1.0 4.0 0.00 0.00 0.00 31 1012.8
20260502184510 66 203 1.0 6.0 0.00 0.00 0.00 33 1013.2
20260502183005 66 148 0.0 3.0 0.00 0.00 0.00 33 1013.4
20260502181600 65 49 1.0 4.0 0.00 0.00 0.00 32 1013.6
20260502163052 63 194 0.0 2.0 0.00 0.00 0.00 39 1015.2
20260502161553 62 126 0.0 1.0 0.00 0.00 0.00 39 1015.2
20260502151531 55 55 0.0 2.0 0.00 0.00 0.00 55 1015.8
20260502123019 34 45 0.0 0.0 0.00 0.00 0.00 88 1015.8
20260502121512 33 45 0.0 0.0 0.00 0.00 0.00 87 1015.8
20260502114510 34 44 0.0 0.0 0.00 0.00 0.00 85 1015.5
20260502113011 34 44 0.0 0.0 0.00 0.00 0.00 84 1015.4
20260502111504 35 45 0.0 0.0 0.00 0.00 0.00 83 1015.4
20260502110002 36 45 0.0 0.0 0.00 0.00 0.00 83 1015.4
20260502104559 37 45 0.0 0.0 0.00 0.00 0.00 83 1015.4
20260502103103 38 45 0.0 0.0 0.00 0.00 0.00 82 1015.2
20260502101556 38 44 0.0 0.0 0.00 0.00 0.00 81 1015.2
20260502100115 39 45 0.0 0.0 0.00 0.00 0.00 81 1015.1
20260502070024 46 41 0.0 0.0 0.00 0.00 0.00 68 1014.4
20260502064519 47 41 0.0 0.0 0.00 0.00 0.00 69 1014.4
20260502063017 47 41 0.0 0.0 0.00 0.00 0.00 69 1014.3
20260502061516 47 41 0.0 1.0 0.00 0.00 0.00 68 1014.2
20260502060013 47 41 0.0 1.0 0.00 0.00 0.00 69 1014.3
20260502054517 47 41 0.0 0.0 0.00 0.00 0.00 68 1014.1
20260502053008 48 41 0.0 0.0 0.00 0.00 0.00 65 1014.0
20260502051512 49 41 0.0 1.0 0.00 0.00 0.00 63 1014.0
20260502050006 51 41 0.0 1.0 0.00 0.00 0.00 61 1013.9
20260502044505 51 70 0.0 0.0 0.00 0.00 0.00 59 1013.7
20260502043002 52 70 0.0 1.0 0.00 0.00 0.00 58 1013.7
20260502041502 53 70 0.0 1.0 0.00 0.00 0.00 56 1013.6
20260502040101 54 75 0.0 1.0 0.00 0.00 0.00 54 1013.4
20260502034600 55 75 0.0 2.0 0.00 0.00 0.00 52 1013.3
20260502033058 56 61 1.0 6.0 0.00 0.00 0.00 50 1013.2
20260502031610 57 68 1.0 5.0 0.00 0.00 0.00 49 1012.9
20260502030053 58 13 2.0 7.0 0.00 0.00 0.00 47 1012.5